Showing default

STRIX-4, 60352

Orbit data source: Space-Track

STRIX-4, 60352 is a payload satellite owned by Synspective (JP) in LEO that was launched on Fri, 02 Aug 2024 UTC via an ELECTRON launch vehicle from the Rocket Lab Launch Complex (RLLC). Payload-class satellites include a variety of spacecraft equipped with specific instruments for various scientific and technological missions. These include communications satellites like Starlink; space stations such as the ISS; scientific satellites like the Hubble; Earth observation satellites from companies like Planet Labs, Umbra, and HawkEye 360; GPS; miniature CubeSats for education and research; and military/defense satellites.

Loading next visibility...
Identifier
60352, 2024-137A
Orbit
LEO
Last TLE update
9 hours ago
Origin
Manufacturer
Synspective
Mission
Operational spacecraft
Bus & Motor
STRIX, Unknown motor
Mass
150 kg wet, 150 kg dry
Launch date (UTC)
2024-08-02 (11 months ago)
Launch vehicle
ELECTRON
Launch site
Rocket Lab Launch Complex (RLLC)
Object type
Payload
Rocket body
Debris
Shape & HBR
Unknown
Radar Cross Section
Medium (>0.1 m² and <1 m²)

Expand to show TLE details & history

TLE from 9 hours ago
0 STRIX-4
1 60352U 24137A   25183.86542063  .00009560  00000-0  44798-3 0  9991
2 60352  43.0199  92.2110 0014095 188.8461 171.2141 15.19774520 50658
Epoch: 2025-07-02T20:46Z
TLE epoch observation values (Epoch: 2025-07-02T20:46:12.342Z)
Latitude
-0.00005°
Longitude
-140.48086°
Altitude
515.889 km
Speed
7.602 km/s
True Right ascension
06h 08m 50s
True Declination
0° 00' 00"
Sunlit
Object was in daylight at epoch
Visualization orbit readout
Latitude
-41.05443°
Longitude
149.23702°
Altitude
519.833 km
Speed
7.603 km/s
Apparent Right ascension
03h 29m 39s
Apparent Declination
-44° 53' 08"
Sunlit
Object is in daylight
Visualization observer readout
Local Sidereal Time
17:40:13
Azimuth
112.517° SE
Elevation
-65.562°
Doppler factor
1
Orbital elements
Apogee altitude
518.163 km
Perigee altitude
498.75 km
Semi-major axis
6,886.594 km
Eccentricity
0.00141
Inclination
43.0199°
RAAN
92.211°
Arg. of periapsis
188.8461°
True anomaly
Unknown
Mean anomaly
171.2141°
Eccentric anomaly
Unknown
Mean motion
3.79784 °/min
Orbital period
94.79 mins
BSTAR
0.00044798
Loading maneuver chart data...
Loading SW <> Apogee altitude chart data...
Loading historical data...
Loading historical data...
Loading historical data...
Loading historical data...
Loading historical data...
Loading historical data...
Loading historical data...
Other satellites on launch #137 in the year 2024 (2024-08-02 UTC)

STRIX-4 Visibility forecast

Observer location: undefined°, undefined°

Span
Click to sort rows by Start time (UTC) header in descending order
Start Az.
Max El. time (UTC)
Max El. Az.
Max El.
End time (UTC)
End Az.
5 mins2025-07-03 20:37:37.903Z196.344° SSW2025-07-03 20:39:37.903Z157.918° S24.029°2025-07-03 20:42:37.903Z95.03° ESE
6 mins2025-07-03 22:16:37.903Z255.284° W2025-07-03 22:19:37.903Z52.171° ENE43.51°2025-07-03 22:22:37.903Z71.058° E
6 mins2025-07-03 23:56:37.903Z290.72° WNW2025-07-03 23:58:37.903Z339.486° N37.675°2025-07-04 00:02:37.903Z78.128° E
5 mins2025-07-04 01:36:37.903Z288.599° WNW2025-07-04 01:38:37.903Z330.2° NNW44.996°2025-07-04 01:41:37.903Z108.807° ESE
4 mins2025-07-04 03:16:37.903Z242.067° WSW2025-07-04 03:17:37.903Z219.111° SW21.735°2025-07-04 03:20:37.903Z163.118° S
|